Regional Weather Roundup
Issued by NWS

Home | Current Version | Previous Version | Graphics & Text | Print | Product List | Glossary On
Versions: 1 2 3 4 5 6 7 8 9 10 11 12 13 14 15 16 17 18 19 20 21 22 23 24 25 26 27 28 29 30 31 32 33 34 35 36 37 38 39 40 41 42 43 44 45 46 47 48 49 50
172
ASUS43 KDTX 221610
RWRMI
MICHIGAN HOURLY REGIONAL WEATHER ROUNDUP
NATIONAL WEATHER SERVICE DETROIT/PONTIAC MI
ISSUED BY NATIONAL WEATHER SERVICE GRAND RAPIDS MI
1100 AM EST SUN JAN 22 2017

NOTE: "FAIR" INDICATES FEW OR NO CLOUDS BELOW 12,000 FEET WITH NO
SIGNIFICANT WEATHER AND/OR OBSTRUCTION TO VISIBILITY.

MIZ047>049-052>055-059>063-066>070-074>076-081>083-221700-
SOUTHEAST LOWER MICHIGAN

CITY           SKY/WX    TMP DP  RH WIND       PRES   REMARKS
ADRIAN         FOG       45  45 100 N3        29.64R VSB 1/4
ALMA           FOG       39  38  99 E5        29.66R VSB 1/4
ANN ARBOR      FOG       47  47 100 N3        29.63R VSB<1/4
BAD AXE        FOG       44  44 100 CALM      29.66S VSB 1/4
DETROIT CITY   FOG       43  43 100 E3        29.65S VSB 1/4
DETROIT        FOG       46  46 100 CALM      29.65R VSB<1/4
FLINT          FOG       44  44 100 NE5       29.65R VSB 1/4
GROSSE ILE     FOG       43  43  99 NE3       29.63F VSB<1/4
HILLSDALE      SUNNY     52  46  82 CALM      29.62S
HOWELL         FOG       45  44  97 CALM      29.64R VSB<1/4

CITY           SKY/WX    TMP DP  RH WIND       PRES   REMARKS
JACKSON        FOG       45  45 100 CALM      29.64R VSB<1/4
LANSING        CLOUDY    42  38  85 E3        29.66R
MASON          FOG       43  43 100 CALM      29.65R VSB 3/4
MONROE         FOG       45  45 100 CALM      29.63S VSB 3/4
MT. CLEMENS    FOG       41  41 100 CALM      29.64R VSB 1/4
PONTIAC        FOG       45  44  97 E3        29.63R VSB 1/16
PORT HOPE        N/A     42  41  96 CALM      29.65R
PORT HURON     FOG       45  45 100 CALM      29.65F VSB 1/4
TRI CITIES     FOG       40  40 100 N6        29.67R VSB 1/4
YPSILANTI      FOG       46  46 100 E5        29.64S VSB<1/4
$$
MIZ043>046-050>051-056>058-064>065-071>073-077>080-221700-
SOUTHWEST LOWER MICHIGAN

CITY           SKY/WX    TMP DP  RH WIND       PRES   REMARKS
BATTLE CREEK   FOG       44  44 100 CALM      29.64S VSB 1
BENTON HARBOR  FOG       41  40  96 CALM      29.66R VSB 1/4
BIG RAPIDS     CLOUDY    39  38  98 CALM      29.65R FOG
COLDWATER      FOG       46  46 100 CALM      29.64R VSB 1/4
HOLLAND        CLOUDY    43  41  93 CALM      29.66R
GRAND RAPIDS   FOG       37  35  92 NE3       29.66R VSB 1/4
KALAMAZOO      FOG       40  38  93 N6        29.65R VSB<1/4
MARSHALL       CLOUDY    45  45  99 CALM      29.64R FOG
MOUNT PLEASANT CLOUDY    39  39  99 E5        29.66R FOG
MUSKEGON       CLOUDY    44  42  93 CALM      29.66R FOG
STURGIS        FOG       46  46 100 CALM      29.63R VSB<1/4
$$
MIZ016>042-221700-
NORTHERN LOWER MICHIGAN

CITY           SKY/WX    TMP DP  RH WIND       PRES   REMARKS
ALPENA         FOG       40  39  97 CALM      29.67R VSB 1/4
BEAVER ISLAND  CLOUDY    41  41 100 S3        29.65R
BELLAIRE       CLOUDY    38  38  99 CALM      29.66R FOG
CADILLAC       FOG       38  37  97 CALM      29.64R VSB 1/4
CHARLEVOIX     CLOUDY    39  39 100 CALM      29.68R FOG
GAYLORD        FOG       40  37  89 CALM      29.64R VSB<1/4
HOUGHTON LAKE  FOG       41  40  96 CALM      29.65R VSB 1/4
MANISTEE       FOG       39  39 100 CALM      29.66R VSB 1/2
OSCODA         FOG       42  41  97 CALM      29.66R VSB 1/4
PELLSTON       FOG       37  37 100 CALM      29.66R VSB<1/4
TRAVERSE CITY  CLOUDY    41  41 100 CALM      29.65R FOG
LUDINGTON      CLOUDY    42  41  98 W3        29.66R FOG
$$
MIZ007>008-015-221700-
EASTERN UPPER MICHIGAN

CITY           SKY/WX    TMP DP  RH WIND       PRES   REMARKS
KINROSS        FOG       36  36 100 SE12      29.66R VSB 1/2 WCI  28
MACKINAC ISLAN FOG       35  35 100 E7        29.65R VSB<1/4 WCI  29
NEWBERRY       FOG       36  35  96 S5        29.63R VSB 1/4 WCI  32
S. S. MARIE    CLOUDY    38  36  92 E8        29.65S FOG     WCI  32
$$
MIZ004>006-011>014-085-221700-
CENTRAL UPPER MICHIGAN

CITY           SKY/WX    TMP DP  RH WIND       PRES   REMARKS
MANISTIQUE     FOG       34  34  97 SE3       29.63R VSB 1/2
ESCANABA       CLOUDY    36  36 100 CALM      29.65R
SAWYER-GWINN   CLOUDY    32  32 100 CALM      29.60R
$$
MIZ001>003-009>011-084-221700-
WESTERN UPPER MICHIGAN

CITY           SKY/WX    TMP DP  RH WIND       PRES   REMARKS
IRON MOUNTAIN  CLOUDY    35  32  88 CALM      29.61R FOG
HOUGHTON       FOG       35  33  92 CALM      29.60R VSB 1/4
COPPER HARBOR    N/A     35  35 100 CALM      29.61R
IRONWOOD       FOG       34  34 100 W5        29.64R VSB 1/4 WCI  30
$$

ABBREVIATIONS USED IN REMARKS
   TC - TEMPERATURE IN CELSIUS
  WCI - WIND CHILL INDEX
   HX - HEAT INDEX
  VSB - VISIBILITY





USA.gov is the U.S. government's official web portal to all federal, state and local government web resources and services.